Wind_Speed
46 47 47 48 50 50 51 52 53 53 53 53 53 53 53 54 53 54 55 55 55 54 54 55 56 56 56 57 57 56 56 55 54 53 53 54 54 54 54 53 53 52 52
45 46 46 47 47 48 49 50 52 53 54 54 54 53 54 54 54 55 55 55 55 55 55 56 56 56 56 56 56 56 56 56 55 54 53 54 54 54 54 54 53 53 52
43 44 44 44 46 47 48 48 49 51 52 53 53 54 54 55 55 54 54 55 55 56 56 57 56 56 56 56 56 56 56 56 56 55 54 55 54 53 54 54 54 54 53
42 43 44 45 45 47 48 48 48 49 49 51 51 53 54 54 54 55 55 55 55 55 56 57 57 57 57 56 56 56 56 56 56 55 55 54 53 53 54 54 54 54 54
42 43 44 45 46 47 47 48 48 49 49 49 50 51 52 53 54 54 55 55 55 55 55 56 56 57 58 57 57 56 56 56 56 56 55 54 54 53 54 54 55 55 55
42 43 43 44 45 46 47 47 47 48 49 49 50 50 51 51 53 54 54 54 55 55 56 56 56 56 56 57 57 57 57 56 55 55 55 54 54 54 55 55 55 56 56
42 43 44 44 45 46 46 46 47 48 48 49 50 50 51 51 52 53 53 54 54 54 54 54 54 55 55 56 56 57 57 57 57 57 56 55 55 55 56 56 56 56 56
42 43 43 44 45 46 46 46 47 48 48 49 50 50 51 52 52 52 52 53 53 53 54 53 53 53 54 55 55 55 56 57 57 57 57 56 56 56 56 56 56 57 57
42 43 43 43 44 45 45 46 47 48 48 49 49 50 51 51 52 52 53 54 54 53 54 53 53 53 54 55 55 55 55 55 55 55 55 55 55 55 55 55 56 57 57
43 43 43 43 44 44 45 45 46 47 48 48 48 49 51 51 52 53 53 54 54 53 53 54 53 53 53 54 54 54 54 54 54 54 54 54 53 53 54 53 53 53 54
42 43 43 44 44 44 44 45 45 46 46 47 48 48 49 49 51 52 53 53 53 53 53 53 53 53 53 53 53 53 53 53 53 52 52 52 52 52 52 52 51 51 50
41 41 42 43 43 43 44 44 44 44 45 45 46 46 47 47 48 49 50 50 51 52 52 52 53 53 52 52 53 53 53 53 52 51 51 50 50 50 50 50 50 50 50
38 38 39 40 41 41 41 42 42 43 43 44 44 44 45 46 47 47 47 48 49 50 50 51 52 52 52 53 53 52 52 52 51 51 51 50 50 50 50 50 50 50 50
37 37 37 38 39 39 39 40 41 41 41 42 42 43 43 44 45 46 47 47 47 48 49 49 50 50 50 51 51 50 51 51 50 50 50 50 50 50 50 50 50 50 49
35 36 36 37 37 36 36 37 38 39 40 40 41 42 42 43 44 45 46 46 47 47 47 47 47 47 48 48 49 49 48 49 49 49 49 49 50 50 50 50 50 50 49
34 34 35 35 35 36 36 36 37 37 39 40 40 41 41 42 43 44 45 45 45 45 45 45 45 45 46 47 47 48 48 48 48 48 49 49 49 49 49 49 50 49 48
34 35 35 35 35 36 36 37 37 37 38 39 39 40 40 41 42 42 43 43 43 43 44 44 44 44 44 45 46 46 47 47 48 48 48 48 49 49 48 48 48 48 47
34 34 35 36 36 37 37 38 38 39 39 39 40 40 40 41 41 41 41 41 41 41 41 41 41 42 42 42 43 44 44 45 46 47 48 48 47 47 47 47 46 46 46
34 34 35 36 36 37 38 39 40 40 40 40 40 41 41 41 41 41 40 40 39 40 40 40 41 41 41 41 41 41 42 43 43 44 45 45 45 45 45 45 45 45 45
34 34 35 35 36 37 38 39 39 40 40 40 40 41 41 40 40 39 39 38 38 38 39 40 40 41 41 41 41 41 41 41 41 42 42 42 42 43 43 43 43 43 43
33 34 35 36 36 37 37 38 38 38 39 38 38 39 39 38 38 37 37 37 37 37 37 37 38 38 38 38 39 39 39 39 39 40 40 40 40 40 40 40 41 41 41
33 34 35 35 36 36 36 36 36 36 36 36 36 36 36 36 36 36 36 35 35 35 35 36 36 36 37 37 37 37 37 37 37 38 38 38 38 38 38 39 39 39 40
34 34 35 35 35 35 35 35 35 35 34 35 35 35 35 35 35 35 35 35 35 34 34 34 34 35 36 36 37 36 36 36 36 36 36 36 36 36 37 37 37 37 37
34 34 34 34 34 34 33 33 33 33 33 33 33 34 34 34 34 34 34 34 34 34 34 34 34 34 34 34 34 35 35 35 36 36 36 36 36 36 36 36 36 36 36
34 34 33 33 32 32 32 32 31 31 31 31 32 32 32 33 33 33 33 33 33 33 33 33 33 32 32 32 31 31 32 33 34 35 35 35 35 35 35 35 35 35 35
33 32 32 32 32 32 31 31 31 31 31 31 31 31 31 32 32 32 32 32 32 31 31 31 31 30 30 30 30 30 30 30 31 32 33 33 33 33 33 33 33 33 33
Wind_Direction
257 257 257 257 256 256 256 256 256 256 255 256 256 257 258 258 259 259 259 260 260 261 262 264 264 265 266 266 266 266 266 266 267 266 266 266 266 265 264 264 263 264 263
259 259 259 259 258 257 257 257 258 258 257 257 258 258 259 259 259 260 260 260 261 262 263 264 264 264 265 266 266 266 266 267 267 267 267 266 266 265 264 263 263 263 263
261 261 260 260 260 259 258 258 258 258 258 258 258 259 260 261 261 261 261 261 262 263 264 265 265 264 265 265 265 266 266 267 267 267 266 266 266 265 264 264 263 263 263
263 263 263 262 261 260 259 259 259 259 259 259 259 260 260 260 261 262 262 262 263 264 265 266 266 265 264 264 264 265 265 266 266 267 266 265 265 264 264 263 263 263 263
266 265 265 264 263 262 261 261 261 261 261 260 260 261 261 261 261 261 262 263 264 265 266 266 266 265 265 264 264 264 266 266 266 267 266 265 265 265 264 264 264 264 264
266 266 266 265 265 264 263 263 262 263 262 262 262 262 262 263 263 263 263 263 264 265 266 266 266 265 265 265 265 265 266 266 266 266 266 265 265 265 265 265 265 265 265
266 266 266 265 265 265 265 265 264 264 264 264 264 263 263 264 266 266 265 265 265 266 265 265 265 265 265 265 266 266 266 266 266 265 266 266 266 266 265 265 265 265 266
267 267 267 266 266 265 266 267 267 267 267 266 266 265 264 264 265 265 266 267 267 267 266 265 265 265 266 266 266 266 266 266 266 266 267 267 266 265 265 265 265 266 267
268 268 268 268 268 268 268 268 268 268 268 268 268 267 266 265 266 266 266 267 267 267 267 266 265 265 266 266 265 265 265 266 266 266 266 266 266 265 265 266 266 266 267
269 268 269 269 270 270 269 269 269 269 269 270 270 270 269 269 268 267 267 267 267 267 266 266 265 265 265 265 266 265 265 265 266 266 266 266 266 266 266 266 267 267 267
270 270 270 271 271 271 271 270 270 271 271 271 271 271 271 270 269 269 268 268 267 267 266 266 265 265 266 265 265 265 265 265 265 265 265 265 266 265 265 265 266 266 267
271 271 271 272 273 273 272 271 272 272 271 271 272 271 271 270 270 269 269 269 268 267 266 265 265 265 264 264 264 264 264 265 265 264 263 263 264 265 265 266 266 266 267
272 272 273 273 273 273 272 271 272 273 273 272 272 271 271 271 271 271 271 271 270 269 267 266 265 265 264 264 264 264 264 264 264 264 263 263 264 265 265 266 266 267 268
273 273 274 275 274 273 273 272 272 273 273 274 273 273 273 274 274 273 272 272 271 270 269 268 266 265 264 264 263 264 263 263 263 263 263 263 263 264 265 265 266 266 267
274 274 275 276 275 274 274 274 274 275 275 275 275 275 275 275 275 274 273 272 272 271 270 268 267 265 264 264 263 263 263 263 262 262 262 262 263 264 264 265 265 266 267
274 276 276 277 276 276 276 276 276 277 277 277 278 277 277 276 276 275 275 274 272 271 270 269 268 266 265 264 264 263 263 262 262 262 263 263 264 264 264 264 264 265 266
276 277 278 277 277 277 277 276 277 278 278 279 279 279 279 279 278 277 276 275 273 272 270 269 268 267 266 266 264 264 263 263 262 262 262 263 264 264 264 264 264 264 265
278 279 279 278 278 278 278 277 278 278 279 279 280 280 281 281 280 278 277 275 273 272 270 269 268 268 268 267 266 265 264 264 263 263 263 263 264 264 264 263 263 264 265
278 280 280 280 280 280 279 279 279 279 279 279 279 280 281 280 279 278 276 275 274 272 270 269 269 269 268 268 267 266 265 265 264 263 263 263 263 264 263 262 263 264 264
280 281 281 281 281 282 282 282 281 281 281 280 280 280 280 280 279 278 277 276 274 273 271 270 269 269 268 268 267 266 266 266 265 264 264 264 264 264 263 263 263 263 263
282 282 283 283 283 283 283 284 284 283 282 281 281 281 281 280 279 279 278 277 276 275 273 271 270 269 268 268 268 267 266 265 265 265 264 264 264 264 263 263 264 264 264
283 284 284 284 284 285 285 285 285 284 283 282 282 283 282 281 280 279 278 277 277 276 274 272 271 270 270 269 268 268 267 266 265 264 263 263 263 263 263 264 264 264 265
284 284 284 285 285 286 286 287 286 285 284 284 284 283 283 281 280 279 278 278 277 276 275 273 272 271 271 270 269 268 267 266 265 264 263 263 263 263 263 263 264 264 265
285 285 285 286 286 286 287 287 287 286 286 285 285 285 283 282 281 280 279 278 276 275 275 274 272 272 272 272 271 269 268 266 265 264 263 263 263 263 263 263 263 264 265
286 285 285 286 286 287 287 287 287 287 288 288 287 286 285 283 282 281 279 277 276 275 274 273 272 271 271 271 271 270 268 267 265 263 262 262 262 262 262 263 263 264 265
286 286 285 285 286 287 287 287 287 287 288 288 288 288 287 285 283 281 279 278 276 275 273 271 270 270 270 271 271 270 269 267 266 265 263 263 263 263 263 263 263 263 264
Height
5596 5597 5598 5599 5601 5602 5604 5605 5607 5609 5611 5612 5614 5615 5616 5617 5618 5619 5621 5622 5623 5624 5625 5625 5626 5627 5628 5628 5629 5630 5630 5631 5632 5634 5634 5633 5634 5635 5636 5638 5640 5642 5644
5583 5584 5585 5587 5588 5589 5590 5592 5593 5595 5596 5598 5599 5601 5602 5603 5604 5605 5606 5607 5608 5609 5610 5610 5611 5612 5613 5613 5614 5614 5615 5615 5617 5618 5619 5618 5619 5620 5621 5623 5625 5627 5629
5571 5572 5573 5574 5575 5576 5577 5578 5580 5581 5582 5583 5585 5586 5588 5589 5590 5591 5592 5593 5593 5594 5595 5595 5596 5596 5597 5598 5598 5599 5600 5600 5601 5602 5603 5603 5604 5604 5606 5608 5610 5612 5614
5560 5560 5561 5562 5563 5563 5564 5565 5566 5567 5568 5569 5570 5571 5573 5574 5575 5576 5577 5578 5579 5579 5580 5580 5580 5581 5582 5582 5583 5584 5584 5585 5585 5586 5588 5588 5589 5590 5592 5594 5596 5597 5599
5548 5549 5549 5549 5550 5550 5551 5552 5553 5554 5555 5556 5557 5557 5558 5559 5560 5561 5562 5563 5563 5564 5564 5565 5565 5565 5566 5566 5567 5568 5569 5569 5570 5571 5572 5573 5575 5576 5577 5579 5580 5582 5583
5537 5537 5537 5537 5538 5538 5538 5539 5540 5540 5541 5542 5543 5543 5544 5545 5545 5546 5547 5547 5548 5549 5549 5549 5549 5550 5550 5551 5552 5552 5553 5554 5555 5556 5557 5558 5560 5561 5562 5563 5564 5566 5569
5524 5525 5525 5525 5525 5525 5526 5526 5527 5527 5527 5528 5529 5529 5530 5530 5530 5531 5531 5532 5532 5533 5534 5534 5534 5535 5535 5536 5536 5537 5538 5538 5539 5541 5542 5543 5545 5546 5547 5548 5549 5550 5553
5512 5512 5512 5512 5513 5513 5513 5513 5513 5513 5514 5514 5514 5515 5516 5516 5516 5516 5516 5517 5517 5518 5518 5519 5519 5520 5520 5520 5521 5521 5522 5523 5524 5525 5527 5528 5529 5529 5530 5532 5533 5534 5536
5500 5499 5499 5500 5500 5500 5500 5499 5499 5500 5500 5499 5500 5500 5500 5501 5501 5501 5501 5502 5502 5502 5503 5503 5503 5504 5505 5505 5506 5507 5507 5508 5508 5509 5510 5511 5512 5513 5514 5516 5517 5518 5521
5487 5487 5487 5487 5487 5487 5486 5486 5486 5486 5485 5485 5485 5485 5485 5485 5485 5485 5485 5486 5487 5487 5487 5488 5488 5489 5489 5489 5489 5490 5492 5493 5493 5494 5495 5496 5497 5498 5499 5500 5501 5502 5504
5475 5475 5474 5474 5474 5473 5473 5473 5472 5472 5472 5472 5472 5471 5471 5470 5470 5470 5469 5470 5470 5471 5471 5472 5472 5472 5472 5472 5473 5474 5476 5477 5478 5479 5480 5481 5482 5483 5484 5485 5486 5488 5489
5463 5462 5462 5462 5461 5460 5460 5459 5459 5458 5458 5458 5457 5457 5456 5455 5455 5454 5454 5453 5453 5454 5455 5455 5456 5456 5456 5457 5457 5458 5460 5461 5462 5463 5465 5466 5467 5469 5470 5470 5471 5473 5474
5451 5450 5450 5449 5448 5447 5447 5446 5446 5445 5445 5445 5444 5443 5443 5442 5441 5440 5439 5438 5438 5438 5438 5438 5439 5439 5440 5441 5442 5443 5444 5445 5446 5448 5450 5452 5453 5454 5455 5456 5457 5458 5459
5439 5439 5438 5437 5436 5435 5435 5434 5434 5433 5432 5432 5431 5430 5429 5428 5427 5426 5425 5424 5423 5423 5422 5423 5423 5423 5424 5425 5426 5427 5428 5430 5431 5433 5435 5437 5438 5439 5440 5441 5442 5443 5444
5428 5427 5426 5426 5425 5424 5423 5422 5422 5421 5420 5419 5418 5417 5416 5415 5413 5411 5410 5410 5409 5408 5407 5408 5408 5408 5409 5410 5411 5412 5414 5415 5416 5418 5420 5421 5423 5424 5425 5426 5428 5429 5430
5417 5416 5415 5415 5414 5413 5412 5411 5409 5409 5407 5406 5404 5403 5402 5401 5399 5397 5396 5395 5394 5393 5393 5393 5394 5394 5395 5395 5396 5398 5399 5400 5402 5403 5405 5406 5408 5409 5410 5411 5413 5414 5415
5406 5405 5404 5403 5402 5401 5400 5399 5398 5397 5395 5393 5392 5390 5389 5387 5385 5384 5382 5381 5380 5379 5379 5379 5380 5380 5381 5381 5382 5383 5385 5386 5387 5388 5390 5391 5392 5394 5395 5396 5398 5399 5401
5395 5394 5393 5392 5391 5390 5388 5387 5386 5384 5383 5381 5379 5377 5376 5374 5372 5370 5369 5368 5367 5366 5366 5366 5366 5367 5367 5368 5368 5369 5370 5371 5372 5373 5375 5376 5377 5379 5380 5382 5383 5385 5386
5384 5383 5382 5380 5379 5378 5376 5375 5373 5372 5370 5368 5366 5364 5362 5360 5359 5357 5356 5355 5354 5354 5353 5353 5353 5354 5354 5355 5355 5356 5357 5358 5359 5359 5361 5362 5363 5364 5366 5367 5369 5370 5372
5373 5372 5370 5369 5367 5366 5364 5362 5361 5359 5357 5355 5353 5351 5349 5347 5346 5344 5343 5342 5342 5341 5341 5341 5341 5341 5341 5342 5342 5343 5344 5344 5345 5346 5347 5348 5349 5351 5352 5354 5355 5357 5358
5363 5361 5359 5357 5356 5354 5352 5350 5348 5346 5344 5342 5340 5338 5336 5335 5333 5332 5331 5330 5329 5329 5329 5329 5329 5329 5329 5329 5330 5330 5331 5332 5333 5333 5334 5335 5336 5338 5339 5341 5342 5344 5345
5352 5350 5348 5346 5344 5342 5340 5338 5336 5333 5331 5330 5328 5326 5324 5322 5321 5320 5319 5318 5318 5317 5317 5317 5317 5317 5317 5317 5318 5318 5319 5320 5321 5321 5322 5323 5324 5326 5327 5328 5330 5331 5332
5340 5339 5337 5334 5332 5330 5328 5326 5324 5322 5320 5318 5316 5315 5313 5311 5310 5309 5308 5307 5306 5306 5305 5305 5305 5306 5306 5306 5306 5306 5307 5308 5309 5310 5311 5312 5313 5314 5315 5317 5318 5319 5320
5329 5327 5325 5323 5321 5319 5317 5315 5313 5311 5309 5307 5305 5303 5302 5300 5298 5297 5296 5295 5295 5294 5294 5294 5294 5294 5294 5294 5294 5295 5295 5296 5297 5298 5299 5300 5301 5303 5304 5305 5306 5308 5309
5318 5316 5314 5312 5310 5309 5307 5305 5303 5301 5299 5297 5295 5293 5291 5289 5287 5286 5285 5284 5284 5283 5283 5283 5283 5284 5284 5284 5284 5284 5284 5285 5285 5287 5288 5289 5290 5291 5293 5294 5295 5296 5297
5308 5306 5303 5302 5300 5298 5296 5294 5293 5291 5289 5287 5285 5283 5281 5279 5277 5275 5275 5274 5273 5273 5273 5273 5273 5273 5274 5274 5274 5274 5274 5274 5275 5276 5277 5278 5279 5281 5282 5283 5284 5285 5287